Location: Corralito
(10.2667°N, 66.9500°W)
Time: 08:10:02
(UTC+00:00)

GPS 2-15 Rocket1 - Pass Details

Date: 11 December 2023
Orbit: 617 x 666 km, 19.8° (Epoch: 02 March)

Event Time Altitude Azimuth Distance (km) Brightness Sun altitude
Exits shadow 09:10:04 44° 255° (WSW) 857 3.4 -20.2°
Maximum altitude 09:11:16 60° 200° (SSW) 705 3.3 -19.9°
Drops below altitude 10° 09:15:52 10° 120° (ESE) 1,987 6.9 -18.9°
Sets 09:18:16 0° 116° (ESE) 2,902 8.2 -18.3°
